* Astronomy

Members Login
Username 
 
Password 
    Remember Me  
Post Info TOPIC: Asteroid 2011 WE44


L

Posts: 131433
Date:
Asteroid 2011 WE44
Permalink  
 


Orbital elements:
2011 WE44                                                Earth MOID = 0.2592 AU
Epoch 2011 Aug. 27.0 TT = JDT 2455800.5                 MPC
M 328.55052              (2000.0)            P               Q
n   0.30191597     Peri.  191.52576     +0.21889019     -0.91400709
a   2.2006214      Node   246.60283     +0.92220985     +0.30815554
e   0.4359597      Incl.   21.85044     +0.31877278     -0.26387726
P   3.26           H   20.9           G   0.15           U   7

MPEC 2011 - W60



__________________
Page 1 of 1  sorted by
 
Quick Reply

Please log in to post quick replies.



Create your own FREE Forum
Report Abuse
Powered by ActiveBoard